Fort Ransom, North Dakota
Current Conditions -  °F | °C
As of 6:15 AM on Wednesday 28 Jan 2015 (Local Time) from KGWR Reporting Station
Overcast Overcast  
Wind Chill: 32°   Ceiling: 100
Heat Index: 32°   Visibility: 0.25mi
Dew Point: 32°   Wind: 0mph
Humidity: 100%   Direction: NA
Pressure: 29.78"   Gusts: NA
Location:  46.52°N, 97.93°W
Report Text: KGWR 281215Z AUTO 00000KT 1/4SM OVC001 00/00 A2978 RMK A01 P000
Loading
Personal Weather Stations






























Interactive Weather Map New forecast layout! Learn more

10-Day Weather Forecast

Advertisements
Track Severe Weather on mobile